| time (UTC) | temp C | wind direction | speed KPH | gust KPH | rain 1hr cm | rain 24hr cm | rain mn cm | humidity % | barometer mb |
| 20260905202419 | 23 | 29 | 20.9 | 25.7 | 0.00 | 0.00 | 0.00 | 66 | 1016.8 |
| 20260905201914 | 23 | 29 | 20.9 | 25.7 | 0.00 | 0.00 | 0.00 | 64 | 1017.1 |
| 20260905201409 | 24 | 29 | 20.9 | 25.7 | 0.00 | 0.00 | 0.00 | 62 | 1016.9 |
| 20260905200904 | 25 | 29 | 20.9 | 25.7 | 0.00 | 0.00 | 0.00 | 59 | 1016.9 |
| 20260905200400 | 26 | 29 | 20.9 | 25.7 | 0.00 | 0.00 | 0.00 | 62 | 1017.0 |
| 20260905195857 | 25 | 29 | 20.9 | 25.7 | 0.00 | 0.00 | 0.00 | 62 | 1017.0 |
| 20260905195353 | 24 | 29 | 20.9 | 25.7 | 0.00 | 0.00 | 0.00 | 66 | 1016.9 |
| 20260905194849 | 23 | 29 | 20.9 | 25.7 | 0.00 | 0.00 | 0.00 | 67 | 1016.9 |
| 20260905194348 | 24 | 29 | 20.9 | 25.7 | 0.00 | 0.00 | 0.00 | 63 | 1016.8 |
| 20260905193847 | 25 | 29 | 20.9 | 25.7 | 0.00 | 0.00 | 0.00 | 61 | 1017.0 |
| 20260905193342 | 25 | 29 | 20.9 | 25.7 | 0.00 | 0.00 | 0.00 | 63 | 1016.9 |
| 20260905192838 | 23 | 29 | 20.9 | 25.7 | 0.00 | 0.00 | 0.00 | 68 | 1016.9 |
| 20260905192333 | 23 | 29 | 20.9 | 25.7 | 0.00 | 0.00 | 0.00 | 64 | 1016.9 |
| 20260905191833 | 25 | 29 | 20.9 | 25.7 | 0.00 | 0.00 | 0.00 | 66 | 1016.9 |
| 20260905191332 | 23 | 29 | 20.9 | 25.7 | 0.00 | 0.00 | 0.00 | 71 | 1017.0 |
| 20260905190830 | 22 | 29 | 20.9 | 25.7 | 0.00 | 0.00 | 0.00 | 67 | 1017.1 |
| 20260905190325 | 23 | 29 | 20.9 | 25.7 | 0.00 | 0.00 | 0.00 | 66 | 1017.0 |
| 20260905185823 | 25 | 29 | 20.9 | 25.7 | 0.00 | 0.00 | 0.00 | 62 | 1017.1 |
| 20260905185319 | 26 | 29 | 20.9 | 25.7 | 0.00 | 0.00 | 0.00 | 58 | 1016.9 |
| 20260905184812 | 25 | 29 | 20.9 | 25.7 | 0.00 | 0.00 | 0.00 | 63 | 1017.0 |
| 20260905184311 | 23 | 29 | 20.9 | 25.7 | 0.00 | 0.00 | 0.00 | 66 | 1017.0 |
| 20260905183810 | 23 | 29 | 20.9 | 25.7 | 0.00 | 0.00 | 0.00 | 68 | 1017.0 |
| 20260905183306 | 25 | 29 | 20.9 | 25.7 | 0.00 | 0.00 | 0.00 | 62 | 1017.0 |
| 20260905182806 | 25 | 29 | 20.9 | 25.7 | 0.00 | 0.00 | 0.00 | 59 | 1016.9 |
| 20260905182306 | 25 | 29 | 20.9 | 25.7 | 0.00 | 0.00 | 0.00 | 61 | 1017.0 |
| 20260905181801 | 24 | 29 | 20.9 | 25.7 | 0.00 | 0.00 | 0.00 | 63 | 1017.1 |
| 20260905181300 | 26 | 29 | 20.9 | 25.7 | 0.00 | 0.00 | 0.00 | 57 | 1016.9 |
| 20260905180754 | 25 | 29 | 20.9 | 25.7 | 0.00 | 0.00 | 0.00 | 60 | 1017.1 |
| 20260905180249 | 25 | 29 | 20.9 | 25.7 | 0.00 | 0.00 | 0.00 | 59 | 1017.2 |
| 20260905175744 | 26 | 29 | 20.9 | 25.7 | 0.00 | 0.00 | 0.00 | 61 | 1017.3 |
| 20260905175239 | 26 | 29 | 20.9 | 25.7 | 0.00 | 0.00 | 0.00 | 63 | 1017.3 |
| 20260905174734 | 25 | 29 | 20.9 | 25.7 | 0.00 | 0.00 | 0.00 | 60 | 1017.2 |
| 20260905174229 | 25 | 29 | 20.9 | 25.7 | 0.00 | 0.00 | 0.00 | 61 | 1017.3 |
| 20260905173720 | 25 | 29 | 20.9 | 25.7 | 0.00 | 0.00 | 0.00 | 60 | 1017.2 |
| 20260905173215 | 25 | 29 | 20.9 | 25.7 | 0.00 | 0.00 | 0.00 | 60 | 1017.3 |
| 20260905172714 | 26 | 29 | 20.9 | 25.7 | 0.00 | 0.00 | 0.00 | 62 | 1017.3 |
| 20260905172209 | 26 | 29 | 20.9 | 25.7 | 0.00 | 0.00 | 0.00 | 60 | 1017.3 |
| 20260905171705 | 25 | 29 | 20.9 | 25.7 | 0.00 | 0.00 | 0.00 | 58 | 1017.4 |
| 20260905171200 | 24 | 29 | 20.9 | 25.7 | 0.00 | 0.00 | 0.00 | 62 | 1017.5 |
| 20260905170658 | 25 | 29 | 20.9 | 25.7 | 0.00 | 0.00 | 0.00 | 62 | 1017.5 |
| 20260905170152 | 25 | 29 | 20.9 | 25.7 | 0.00 | 0.00 | 0.00 | 66 | 1017.6 |
| 20260905165652 | 25 | 29 | 20.9 | 25.7 | 0.00 | 0.00 | 0.00 | 63 | 1017.5 |
| 20260905165147 | 25 | 29 | 20.9 | 25.7 | 0.00 | 0.00 | 0.00 | 63 | 1017.4 |
| 20260905164642 | 24 | 29 | 20.9 | 25.7 | 0.00 | 0.00 | 0.00 | 64 | 1017.5 |
| 20260905164141 | 23 | 29 | 20.9 | 25.7 | 0.00 | 0.00 | 0.00 | 68 | 1017.4 |
| 20260905163637 | 23 | 29 | 20.9 | 25.7 | 0.00 | 0.00 | 0.00 | 68 | 1017.6 |
| 20260905163134 | 22 | 29 | 20.9 | 25.7 | 0.00 | 0.00 | 0.00 | 70 | 1017.4 |
| 20260905162630 | 22 | 29 | 20.9 | 25.7 | 0.00 | 0.00 | 0.00 | 69 | 1017.5 |
| 20260905162129 | 23 | 29 | 20.9 | 25.7 | 0.00 | 0.00 | 0.00 | 68 | 1017.5 |
| 20260905161628 | 24 | 29 | 20.9 | 25.7 | 0.00 | 0.00 | 0.00 | 64 | 1017.4 |
| 20260905161126 | 23 | 29 | 20.9 | 25.7 | 0.00 | 0.00 | 0.00 | 66 | 1017.6 |
| 20260905160621 | 23 | 29 | 20.9 | 25.7 | 0.00 | 0.00 | 0.00 | 67 | 1017.6 |
| 20260905160120 | 23 | 29 | 20.9 | 25.7 | 0.00 | 0.00 | 0.00 | 66 | 1017.6 |
| 20260905155615 | 23 | 29 | 20.9 | 25.7 | 0.00 | 0.00 | 0.00 | 66 | 1017.4 |
| 20260905155114 | 23 | 29 | 20.9 | 25.7 | 0.00 | 0.00 | 0.00 | 67 | 1017.4 |
| 20260905154608 | 23 | 29 | 20.9 | 25.7 | 0.00 | 0.00 | 0.00 | 68 | 1017.5 |
| 20260905154104 | 23 | 29 | 20.9 | 25.7 | 0.00 | 0.00 | 0.00 | 70 | 1017.3 |
| 20260905153559 | 22 | 29 | 20.9 | 25.7 | 0.00 | 0.00 | 0.00 | 70 | 1017.5 |
| 20260905153054 | 22 | 29 | 20.9 | 25.7 | 0.00 | 0.00 | 0.00 | 70 | 1017.6 |
| 20260905152549 | 22 | 29 | 20.9 | 25.7 | 0.00 | 0.00 | 0.00 | 73 | 1017.7 |
| 20260905152044 | 22 | 29 | 20.9 | 25.7 | 0.00 | 0.00 | 0.00 | 76 | 1017.6 |
| 20260905151539 | 23 | 29 | 20.9 | 25.7 | 0.00 | 0.00 | 0.00 | 75 | 1017.6 |
| 20260905151035 | 23 | 29 | 20.9 | 25.7 | 0.00 | 0.00 | 0.00 | 69 | 1017.8 |
| 20260905150530 | 22 | 29 | 20.9 | 25.7 | 0.00 | 0.00 | 0.00 | 72 | 1017.6 |
| 20260905150027 | 22 | 29 | 20.9 | 25.7 | 0.00 | 0.00 | 0.00 | 71 | 1017.6 |
| 20260905145521 | 22 | 29 | 20.9 | 25.7 | 0.00 | 0.00 | 0.00 | 73 | 1017.6 |
| 20260905145021 | 22 | 29 | 20.9 | 25.7 | 0.00 | 0.00 | 0.00 | 79 | 1017.5 |
| 20260905144516 | 21 | 29 | 20.9 | 25.7 | 0.00 | 0.00 | 0.00 | 76 | 1017.7 |
| 20260905144015 | 21 | 29 | 20.9 | 25.7 | 0.00 | 0.00 | 0.00 | 78 | 1017.4 |
| 20260905143514 | 21 | 29 | 20.9 | 25.7 | 0.00 | 0.00 | 0.00 | 78 | 1017.5 |
| 20260905143009 | 21 | 29 | 20.9 | 25.7 | 0.00 | 0.00 | 0.00 | 80 | 1017.5 |
| 20260905142508 | 21 | 29 | 20.9 | 25.7 | 0.00 | 0.00 | 0.00 | 80 | 1017.4 |
| 20260905142004 | 21 | 29 | 20.9 | 25.7 | 0.00 | 0.00 | 0.00 | 81 | 1017.3 |
| 20260905141503 | 21 | 29 | 20.9 | 25.7 | 0.00 | 0.00 | 0.00 | 84 | 1017.4 |
| 20260905141000 | 20 | 29 | 20.9 | 25.7 | 0.00 | 0.00 | 0.00 | 84 | 1017.4 |
| 20260905140454 | 20 | 29 | 20.9 | 25.7 | 0.00 | 0.00 | 0.00 | 84 | 1017.6 |
| 20260905135953 | 20 | 29 | 20.9 | 25.7 | 0.00 | 0.00 | 0.00 | 85 | 1017.5 |
| 20260905135449 | 20 | 29 | 20.9 | 25.7 | 0.00 | 0.00 | 0.00 | 84 | 1017.4 |
| 20260905134944 | 20 | 29 | 20.9 | 25.7 | 0.00 | 0.00 | 0.00 | 85 | 1017.5 |
| 20260905134443 | 19 | 29 | 20.9 | 25.7 | 0.00 | 0.00 | 0.00 | 85 | 1017.4 |
| 20260905133942 | 19 | 29 | 20.9 | 25.7 | 0.00 | 0.00 | 0.00 | 87 | 1017.4 |
| 20260905133437 | 19 | 29 | 20.9 | 25.7 | 0.00 | 0.00 | 0.00 | 87 | 1017.6 |
| 20260905132932 | 18 | 29 | 20.9 | 25.7 | 0.00 | 0.00 | 0.00 | 90 | 1017.8 |
| 20260905132427 | 18 | 29 | 20.9 | 25.7 | 0.00 | 0.00 | 0.00 | 93 | 1017.8 |
| 20260905131922 | 18 | 29 | 20.9 | 25.7 | 0.00 | 0.00 | 0.00 | 93 | 1017.7 |
| 20260905131418 | 18 | 29 | 20.9 | 25.7 | 0.00 | 0.00 | 0.00 | 92 | 1017.8 |
| 20260905130912 | 18 | 29 | 20.9 | 25.7 | 0.00 | 0.00 | 0.00 | 93 | 1017.8 |
| 20260905130412 | 18 | 29 | 20.9 | 25.7 | 0.00 | 0.00 | 0.00 | 92 | 1017.7 |
| 20260905125906 | 18 | 29 | 20.9 | 25.7 | 0.00 | 0.00 | 0.00 | 92 | 1017.8 |
| 20260905125401 | 18 | 29 | 20.9 | 25.7 | 0.00 | 0.00 | 0.00 | 92 | 1017.7 |
| 20260905124857 | 18 | 29 | 20.9 | 25.7 | 0.00 | 0.00 | 0.00 | 92 | 1017.6 |
| 20260905124353 | 18 | 29 | 20.9 | 25.7 | 0.00 | 0.00 | 0.00 | 93 | 1017.6 |
| 20260905123853 | 18 | 29 | 20.9 | 25.7 | 0.00 | 0.00 | 0.00 | 92 | 1017.7 |
| 20260905123350 | 17 | 29 | 20.9 | 25.7 | 0.00 | 0.00 | 0.00 | 92 | 1017.9 |
| 20260905122850 | 17 | 29 | 20.9 | 25.7 | 0.00 | 0.00 | 0.00 | 94 | 1017.9 |
| 20260905122349 | 17 | 29 | 20.9 | 25.7 | 0.00 | 0.00 | 0.00 | 96 | 1018.0 |
| 20260905121844 | 17 | 29 | 20.9 | 25.7 | 0.00 | 0.00 | 0.00 | 97 | 1017.6 |
| 20260905121341 | 16 | 29 | 20.9 | 25.7 | 0.00 | 0.00 | 0.00 | 98 | 1017.7 |
| 20260905120839 | 16 | 29 | 20.9 | 25.7 | 0.00 | 0.00 | 0.00 | 99 | 1017.6 |
| 20260905120334 | 16 | 29 | 20.9 | 25.7 | 0.00 | 0.00 | 0.00 | 99 | 1017.8 |
| 20260905115830 | 15 | 29 | 20.9 | 25.7 | 0.00 | 0.00 | 0.00 | 99 | 1017.7 |
| 20260905115329 | 15 | 29 | 20.9 | 25.7 | 0.00 | 0.00 | 0.00 | 99 | 1017.9 |
| 20260905114829 | 15 | 29 | 20.9 | 25.7 | 0.00 | 0.00 | 0.00 | 99 | 1017.7 |
| 20260905114328 | 15 | 29 | 20.9 | 25.7 | 0.00 | 0.00 | 0.00 | 99 | 1017.6 |
| 20260905113827 | 15 | 29 | 20.9 | 25.7 | 0.00 | 0.00 | 0.00 | 99 | 1017.8 |
| 20260905113323 | 15 | 29 | 20.9 | 25.7 | 0.00 | 0.00 | 0.00 | 99 | 1017.6 |
| 20260905112819 | 15 | 29 | 20.9 | 25.7 | 0.00 | 0.00 | 0.00 | 99 | 1017.4 |
| 20260905112313 | 15 | 29 | 20.9 | 25.7 | 0.00 | 0.00 | 0.00 | 99 | 1017.2 |
| 20260905111809 | 15 | 29 | 20.9 | 25.7 | 0.00 | 0.00 | 0.00 | 98 | 1017.3 |
| 20260905111308 | 15 | 29 | 20.9 | 25.7 | 0.00 | 0.00 | 0.00 | 98 | 1017.2 |
| 20260905110803 | 15 | 29 | 20.9 | 25.7 | 0.00 | 0.00 | 0.00 | 98 | 1017.1 |
| 20260905110301 | 15 | 29 | 20.9 | 25.7 | 0.00 | 0.00 | 0.00 | 98 | 1017.1 |
| 20260905105758 | 15 | 29 | 20.9 | 25.7 | 0.00 | 0.00 | 0.00 | 98 | 1017.1 |
| 20260905105256 | 15 | 29 | 20.9 | 25.7 | 0.00 | 0.00 | 0.00 | 98 | 1017.2 |
| 20260905104751 | 15 | 29 | 20.9 | 25.7 | 0.00 | 0.00 | 0.00 | 98 | 1017.1 |
| 20260905104248 | 15 | 29 | 20.9 | 25.7 | 0.00 | 0.00 | 0.00 | 98 | 1016.9 |
| 20260905103747 | 15 | 29 | 20.9 | 25.7 | 0.00 | 0.00 | 0.00 | 98 | 1016.9 |
| 20260905103243 | 15 | 29 | 20.9 | 25.7 | 0.00 | 0.00 | 0.00 | 98 | 1017.0 |
| 20260905102738 | 15 | 29 | 20.9 | 25.7 | 0.00 | 0.00 | 0.00 | 98 | 1017.0 |
| 20260905102235 | 15 | 29 | 20.9 | 25.7 | 0.00 | 0.00 | 0.00 | 98 | 1016.8 |
| 20260905101734 | 15 | 29 | 20.9 | 25.7 | 0.00 | 0.00 | 0.00 | 98 | 1016.7 |
| 20260905101232 | 15 | 29 | 20.9 | 25.7 | 0.00 | 0.00 | 0.00 | 98 | 1016.7 |
| 20260905100728 | 15 | 29 | 20.9 | 25.7 | 0.00 | 0.00 | 0.00 | 98 | 1016.7 |
| 20260905100224 | 15 | 29 | 20.9 | 25.7 | 0.00 | 0.00 | 0.00 | 98 | 1016.8 |
| 20260905095723 | 15 | 29 | 20.9 | 25.7 | 0.00 | 0.00 | 0.00 | 98 | 1016.7 |
| 20260905095217 | 15 | 29 | 20.9 | 25.7 | 0.00 | 0.00 | 0.00 | 98 | 1016.9 |
| 20260905094712 | 15 | 29 | 20.9 | 25.7 | 0.00 | 0.00 | 0.00 | 98 | 1016.7 |
| 20260905094207 | 15 | 29 | 20.9 | 25.7 | 0.00 | 0.00 | 0.00 | 97 | 1016.8 |
| 20260905093707 | 15 | 29 | 20.9 | 25.7 | 0.00 | 0.00 | 0.00 | 97 | 1016.8 |
| 20260905093203 | 15 | 29 | 20.9 | 25.7 | 0.00 | 0.00 | 0.00 | 97 | 1016.8 |
| 20260905092658 | 15 | 29 | 20.9 | 25.7 | 0.00 | 0.00 | 0.00 | 97 | 1016.6 |
| 20260905092154 | 15 | 29 | 20.9 | 25.7 | 0.00 | 0.00 | 0.00 | 97 | 1016.8 |
| 20260905091653 | 15 | 29 | 20.9 | 25.7 | 0.00 | 0.00 | 0.00 | 97 | 1016.6 |
| 20260905091154 | 15 | 29 | 20.9 | 25.7 | 0.00 | 0.00 | 0.00 | 96 | 1016.5 |
| 20260905090653 | 15 | 29 | 20.9 | 25.7 | 0.00 | 0.00 | 0.00 | 96 | 1016.6 |
| 20260905090149 | 16 | 29 | 20.9 | 25.7 | 0.00 | 0.00 | 0.00 | 96 | 1016.5 |
| 20260905085647 | 16 | 29 | 20.9 | 25.7 | 0.00 | 0.00 | 0.00 | 95 | 1016.6 |
| 20260905085143 | 16 | 29 | 20.9 | 25.7 | 0.00 | 0.00 | 0.00 | 95 | 1016.7 |
| 20260905084642 | 16 | 29 | 20.9 | 25.7 | 0.00 | 0.00 | 0.00 | 95 | 1016.7 |
| 20260905084137 | 16 | 29 | 20.9 | 25.7 | 0.00 | 0.00 | 0.00 | 94 | 1016.7 |
| 20260905083632 | 17 | 29 | 20.9 | 25.7 | 0.00 | 0.00 | 0.00 | 92 | 1016.8 |
| 20260905083128 | 17 | 29 | 20.9 | 25.7 | 0.00 | 0.00 | 0.00 | 91 | 1016.6 |
| 20260905082624 | 17 | 29 | 20.9 | 25.7 | 0.00 | 0.00 | 0.00 | 91 | 1016.8 |
| 20260905082119 | 17 | 29 | 20.9 | 25.7 | 0.00 | 0.00 | 0.00 | 91 | 1016.6 |
| 20260905081613 | 17 | 29 | 20.9 | 25.7 | 0.00 | 0.00 | 0.00 | 90 | 1016.7 |
| 20260905081108 | 17 | 29 | 20.9 | 25.7 | 0.00 | 0.00 | 0.00 | 89 | 1016.7 |
| 20260905080608 | 17 | 29 | 20.9 | 25.7 | 0.00 | 0.00 | 0.00 | 89 | 1016.8 |
| 20260905080057 | 17 | 29 | 20.9 | 25.7 | 0.00 | 0.00 | 0.00 | 88 | 1016.7 |
| 20260905075550 | 17 | 29 | 20.9 | 25.7 | 0.00 | 0.00 | 0.00 | 89 | 1016.6 |
| 20260905075044 | 17 | 29 | 20.9 | 25.7 | 0.00 | 0.00 | 0.00 | 89 | 1016.7 |
| 20260905074544 | 17 | 29 | 20.9 | 25.7 | 0.00 | 0.00 | 0.00 | 89 | 1016.7 |
| 20260905074040 | 17 | 29 | 20.9 | 25.7 | 0.00 | 0.00 | 0.00 | 89 | 1016.7 |
| 20260905073535 | 17 | 29 | 20.9 | 25.7 | 0.00 | 0.00 | 0.00 | 88 | 1016.7 |
| 20260905073031 | 17 | 29 | 20.9 | 25.7 | 0.00 | 0.00 | 0.00 | 87 | 1016.6 |
| 20260905072530 | 17 | 29 | 20.9 | 25.7 | 0.00 | 0.00 | 0.00 | 86 | 1016.5 |
| 20260905072026 | 18 | 29 | 20.9 | 25.7 | 0.00 | 0.00 | 0.00 | 86 | 1016.7 |
| 20260905071522 | 18 | 29 | 20.9 | 25.7 | 0.00 | 0.00 | 0.00 | 86 | 1016.7 |
| 20260905071017 | 18 | 29 | 20.9 | 25.7 | 0.00 | 0.00 | 0.00 | 85 | 1016.7 |
| 20260905070512 | 18 | 29 | 20.9 | 25.7 | 0.00 | 0.00 | 0.00 | 85 | 1016.8 |
| 20260905070008 | 18 | 29 | 20.9 | 25.7 | 0.00 | 0.00 | 0.00 | 84 | 1016.9 |
| 20260905065506 | 18 | 29 | 20.9 | 25.7 | 0.00 | 0.00 | 0.00 | 84 | 1017.0 |
| 20260905065001 | 18 | 29 | 20.9 | 25.7 | 0.00 | 0.00 | 0.00 | 84 | 1016.9 |
| 20260905064455 | 18 | 29 | 20.9 | 25.7 | 0.00 | 0.00 | 0.00 | 85 | 1016.9 |
| 20260905063950 | 18 | 29 | 20.9 | 25.7 | 0.00 | 0.00 | 0.00 | 85 | 1016.8 |
| 20260905063445 | 18 | 29 | 20.9 | 25.7 | 0.00 | 0.00 | 0.00 | 85 | 1017.0 |
| 20260905062941 | 18 | 29 | 20.9 | 25.7 | 0.00 | 0.00 | 0.00 | 85 | 1017.0 |
| 20260905062441 | 18 | 29 | 20.9 | 25.7 | 0.00 | 0.00 | 0.00 | 88 | 1017.1 |
| 20260905061936 | 18 | 29 | 20.9 | 25.7 | 0.00 | 0.00 | 0.00 | 90 | 1017.1 |
| 20260905061431 | 18 | 29 | 20.9 | 25.7 | 0.00 | 0.00 | 0.00 | 83 | 1017.1 |
| 20260905060930 | 18 | 29 | 20.9 | 25.7 | 0.00 | 0.00 | 0.00 | 85 | 1017.3 |
| 20260905060426 | 18 | 29 | 20.9 | 25.7 | 0.00 | 0.00 | 0.00 | 86 | 1017.3 |
| 20260905055926 | 18 | 29 | 20.9 | 25.7 | 0.00 | 0.00 | 0.00 | 86 | 1017.2 |
| 20260905055421 | 18 | 29 | 20.9 | 25.7 | 0.00 | 0.00 | 0.00 | 85 | 1017.4 |
| 20260905054920 | 18 | 29 | 20.9 | 25.7 | 0.00 | 0.00 | 0.00 | 84 | 1017.6 |
| 20260905054416 | 18 | 29 | 20.9 | 25.7 | 0.00 | 0.00 | 0.00 | 85 | 1017.4 |
| 20260905053915 | 18 | 29 | 20.9 | 25.7 | 0.00 | 0.00 | 0.00 | 89 | 1017.6 |
| 20260905053410 | 18 | 29 | 20.9 | 25.7 | 0.00 | 0.00 | 0.00 | 83 | 1017.5 |
| 20260905052906 | 18 | 29 | 20.9 | 25.7 | 0.00 | 0.00 | 0.00 | 84 | 1017.5 |
| 20260905052406 | 18 | 29 | 20.9 | 25.7 | 0.00 | 0.00 | 0.00 | 84 | 1017.6 |
| 20260905051905 | 18 | 29 | 20.9 | 25.7 | 0.00 | 0.00 | 0.00 | 85 | 1017.7 |
| 20260905051401 | 18 | 29 | 20.9 | 25.7 | 0.00 | 0.00 | 0.00 | 89 | 1017.7 |
| 20260905050858 | 17 | 29 | 20.9 | 25.7 | 0.00 | 0.00 | 0.00 | 89 | 1017.9 |
| 20260905050354 | 17 | 29 | 20.9 | 25.7 | 0.00 | 0.00 | 0.00 | 96 | 1017.9 |
| 20260905045849 | 17 | 29 | 20.9 | 25.7 | 0.00 | 0.00 | 0.00 | 97 | 1017.8 |
| 20260905045344 | 17 | 29 | 20.9 | 25.7 | 0.00 | 0.00 | 0.00 | 98 | 1017.9 |
| 20260905044839 | 17 | 29 | 20.9 | 25.7 | 0.00 | 0.00 | 0.00 | 97 | 1018.2 |
| 20260905044334 | 17 | 29 | 20.9 | 25.7 | 0.00 | 0.00 | 0.00 | 97 | 1018.1 |
| 20260905043833 | 17 | 29 | 20.9 | 25.7 | 0.00 | 0.00 | 0.00 | 96 | 1018.0 |
| 20260905043328 | 17 | 29 | 20.9 | 25.7 | 0.00 | 0.00 | 0.00 | 96 | 1018.0 |
| 20260905042822 | 17 | 29 | 20.9 | 25.7 | 0.00 | 0.00 | 0.00 | 95 | 1018.1 |
| 20260905042316 | 17 | 29 | 20.9 | 25.7 | 0.00 | 0.00 | 0.00 | 95 | 1018.1 |
| 20260905041812 | 17 | 29 | 20.9 | 25.7 | 0.00 | 0.00 | 0.00 | 94 | 1018.0 |
| 20260905041308 | 17 | 29 | 20.9 | 25.7 | 0.00 | 0.00 | 0.00 | 94 | 1018.1 |
| 20260905040803 | 17 | 29 | 20.9 | 25.7 | 0.00 | 0.00 | 0.00 | 96 | 1018.0 |
| 20260905040301 | 17 | 29 | 20.9 | 25.7 | 0.00 | 0.00 | 0.00 | 96 | 1018.1 |
| 20260905035756 | 17 | 29 | 20.9 | 25.7 | 0.00 | 0.69 | 0.69 | 96 | 1018.1 |
| 20260905035252 | 17 | 29 | 20.9 | 25.7 | 0.00 | 0.69 | 0.69 | 96 | 1018.0 |
| 20260905034749 | 17 | 29 | 20.9 | 25.7 | 0.00 | 0.69 | 0.69 | 96 | 1018.1 |
| 20260905034249 | 17 | 29 | 20.9 | 25.7 | 0.00 | 0.69 | 0.69 | 96 | 1018.0 |
| 20260905033747 | 17 | 29 | 20.9 | 25.7 | 0.00 | 0.69 | 0.69 | 96 | 1018.1 |
| 20260905033243 | 17 | 29 | 20.9 | 25.7 | 0.00 | 0.69 | 0.69 | 96 | 1017.9 |
| 20260905032742 | 17 | 29 | 20.9 | 25.7 | 0.00 | 0.69 | 0.69 | 96 | 1018.0 |
| 20260905032238 | 17 | 29 | 20.9 | 25.7 | 0.00 | 0.69 | 0.69 | 96 | 1018.0 |
| 20260905031732 | 18 | 29 | 20.9 | 25.7 | 0.00 | 0.69 | 0.69 | 96 | 1018.0 |
| 20260905031229 | 18 | 29 | 20.9 | 25.7 | 0.00 | 0.69 | 0.69 | 96 | 1017.9 |
| 20260905030723 | 18 | 29 | 20.9 | 25.7 | 0.00 | 0.69 | 0.69 | 96 | 1018.0 |
| 20260905030218 | 18 | 29 | 20.9 | 25.7 | 0.00 | 0.69 | 0.69 | 95 | 1018.0 |
| 20260905025713 | 18 | 29 | 20.9 | 25.7 | 0.00 | 0.69 | 0.69 | 95 | 1017.9 |
| 20260905025209 | 18 | 29 | 20.9 | 25.7 | 0.00 | 0.69 | 0.69 | 94 | 1017.9 |
| 20260905024704 | 18 | 29 | 20.9 | 25.7 | 0.00 | 0.69 | 0.69 | 94 | 1017.9 |
| 20260905024200 | 18 | 29 | 20.9 | 25.7 | 0.00 | 0.69 | 0.69 | 94 | 1018.0 |
| 20260905023654 | 18 | 29 | 20.9 | 25.7 | 0.00 | 0.69 | 0.69 | 93 | 1017.9 |
| 20260905023149 | 18 | 29 | 20.9 | 25.7 | 0.00 | 0.69 | 0.69 | 93 | 1017.8 |
| 20260905022648 | 18 | 29 | 20.9 | 25.7 | 0.00 | 0.69 | 0.69 | 95 | 1018.0 |
| 20260905022144 | 18 | 29 | 20.9 | 25.7 | 0.00 | 0.69 | 0.69 | 97 | 1018.0 |
| 20260905021643 | 18 | 29 | 20.9 | 25.7 | 0.00 | 0.69 | 0.69 | 97 | 1017.9 |
| 20260905021139 | 18 | 29 | 20.9 | 25.7 | 0.00 | 0.69 | 0.69 | 98 | 1017.9 |
| 20260905020633 | 18 | 29 | 20.9 | 25.7 | 0.00 | 0.69 | 0.69 | 98 | 1017.8 |
| 20260905020129 | 18 | 29 | 20.9 | 25.7 | 0.00 | 0.69 | 0.69 | 98 | 1017.8 |
| 20260905015627 | 18 | 29 | 20.9 | 25.7 | 0.00 | 0.69 | 0.69 | 97 | 1017.9 |
| 20260905015121 | 18 | 29 | 20.9 | 25.7 | 0.00 | 0.69 | 0.69 | 97 | 1017.7 |
| 20260905014615 | 18 | 29 | 20.9 | 25.7 | 0.00 | 0.69 | 0.69 | 97 | 1017.8 |
| 20260905014111 | 19 | 29 | 20.9 | 25.7 | 0.00 | 0.69 | 0.69 | 96 | 1017.9 |
| 20260905013608 | 19 | 29 | 20.9 | 25.7 | 0.00 | 0.69 | 0.69 | 95 | 1017.8 |
| 20260905013103 | 19 | 29 | 20.9 | 25.7 | 0.00 | 0.69 | 0.69 | 96 | 1017.9 |
| 20260905012603 | 19 | 29 | 20.9 | 25.7 | 0.00 | 0.69 | 0.69 | 96 | 1018.0 |
| 20260905012100 | 19 | 29 | 20.9 | 25.7 | 0.00 | 0.69 | 0.69 | 96 | 1018.0 |
| 20260905011555 | 19 | 29 | 20.9 | 25.7 | 0.00 | 0.69 | 0.69 | 96 | 1017.9 |
| 20260905011050 | 20 | 29 | 20.9 | 25.7 | 0.00 | 0.69 | 0.69 | 96 | 1017.9 |
| 20260905010550 | 20 | 29 | 20.9 | 25.7 | 0.00 | 0.69 | 0.69 | 95 | 1017.9 |
| 20260905010047 | 20 | 29 | 20.9 | 25.7 | 0.00 | 0.69 | 0.69 | 96 | 1017.8 |
| 20260905005542 | 20 | 29 | 20.9 | 25.7 | 0.00 | 0.69 | 0.69 | 96 | 1017.9 |
| 20260905005037 | 20 | 29 | 20.9 | 25.7 | 0.00 | 0.69 | 0.69 | 96 | 1018.2 |
| 20260905004532 | 20 | 29 | 20.9 | 25.7 | 0.00 | 0.69 | 0.69 | 96 | 1018.0 |
| 20260905004027 | 20 | 29 | 20.9 | 25.7 | 0.00 | 0.69 | 0.69 | 95 | 1017.9 |
| 20260905003523 | 20 | 29 | 20.9 | 25.7 | 0.00 | 0.69 | 0.69 | 95 | 1017.9 |
| 20260905003019 | 20 | 29 | 20.9 | 25.7 | 0.00 | 0.69 | 0.69 | 94 | 1017.8 |
| 20260905002514 | 20 | 29 | 20.9 | 25.7 | 0.00 | 0.69 | 0.69 | 94 | 1017.7 |
| 20260905002014 | 20 | 29 | 20.9 | 25.7 | 0.00 | 0.69 | 0.69 | 93 | 1017.7 |
| 20260905001509 | 20 | 29 | 20.9 | 25.7 | 0.00 | 0.69 | 0.69 | 93 | 1017.8 |
| 20260905001003 | 20 | 29 | 20.9 | 25.7 | 0.00 | 0.69 | 0.69 | 92 | 1017.9 |
| 20260905000459 | 20 | 29 | 20.9 | 25.7 | 0.00 | 0.69 | 0.69 | 92 | 1017.7 |
| 20260904235954 | 20 | 29 | 20.9 | 25.7 | 0.00 | 0.69 | 0.69 | 91 | 1017.7 |
| 20260904235449 | 20 | 29 | 20.9 | 25.7 | 0.00 | 0.69 | 0.69 | 91 | 1017.8 |
| 20260904234949 | 20 | 29 | 20.9 | 25.7 | 0.00 | 0.69 | 0.69 | 90 | 1017.6 |
| 20260904234449 | 21 | 29 | 20.9 | 25.7 | 0.00 | 0.69 | 0.69 | 90 | 1017.6 |
| 20260904233945 | 21 | 29 | 20.9 | 25.7 | 0.00 | 0.69 | 0.69 | 90 | 1017.4 |
| 20260904233440 | 21 | 29 | 20.9 | 25.7 | 0.00 | 0.69 | 0.69 | 89 | 1017.6 |
| 20260904232936 | 21 | 29 | 20.9 | 25.7 | 0.00 | 0.69 | 0.69 | 89 | 1017.5 |
| 20260904232432 | 21 | 29 | 20.9 | 25.7 | 0.00 | 0.69 | 0.69 | 89 | 1017.7 |
| 20260904231929 | 21 | 29 | 20.9 | 25.7 | 0.00 | 0.69 | 0.69 | 88 | 1017.4 |
| 20260904231423 | 21 | 29 | 20.9 | 25.7 | 0.00 | 0.69 | 0.69 | 87 | 1017.5 |
| 20260904230919 | 21 | 29 | 20.9 | 25.7 | 0.00 | 0.69 | 0.69 | 86 | 1017.5 |
| 20260904230417 | 21 | 29 | 20.9 | 25.7 | 0.00 | 0.69 | 0.69 | 85 | 1017.6 |
| 20260904225912 | 21 | 29 | 20.9 | 25.7 | 0.00 | 0.69 | 0.69 | 82 | 1017.6 |
| 20260904225410 | 21 | 29 | 20.9 | 25.7 | 0.00 | 0.69 | 0.69 | 82 | 1017.5 |
| 20260904224905 | 22 | 29 | 20.9 | 25.7 | 0.00 | 0.69 | 0.69 | 84 | 1017.6 |
| 20260904224401 | 22 | 29 | 20.9 | 25.7 | 0.00 | 0.69 | 0.69 | 81 | 1017.5 |
| 20260904223900 | 22 | 29 | 20.9 | 25.7 | 0.00 | 0.69 | 0.69 | 80 | 1017.5 |
| 20260904223359 | 22 | 29 | 20.9 | 25.7 | 0.00 | 0.69 | 0.69 | 80 | 1017.6 |
| 20260904222856 | 22 | 29 | 20.9 | 25.7 | 0.00 | 0.69 | 0.69 | 81 | 1017.6 |
| 20260904222356 | 23 | 29 | 20.9 | 25.7 | 0.00 | 0.69 | 0.69 | 79 | 1017.3 |
| 20260904221856 | 23 | 29 | 20.9 | 25.7 | 0.00 | 0.69 | 0.69 | 77 | 1017.4 |
| 20260904221351 | 23 | 29 | 20.9 | 25.7 | 0.00 | 0.69 | 0.69 | 77 | 1017.5 |
| 20260904220846 | 23 | 29 | 20.9 | 25.7 | 0.00 | 0.69 | 0.69 | 76 | 1017.4 |
| 20260904220345 | 23 | 29 | 20.9 | 25.7 | 0.00 | 0.69 | 0.69 | 76 | 1017.5 |
| 20260904215841 | 24 | 29 | 20.9 | 25.7 | 0.00 | 0.69 | 0.69 | 73 | 1017.2 |
| 20260904215336 | 25 | 29 | 20.9 | 25.7 | 0.00 | 0.69 | 0.69 | 70 | 1017.6 |
| 20260904214832 | 25 | 29 | 20.9 | 25.7 | 0.00 | 0.69 | 0.69 | 67 | 1017.3 |
| 20260904214328 | 26 | 29 | 20.9 | 25.7 | 0.00 | 0.69 | 0.69 | 70 | 1017.5 |
| 20260904213826 | 26 | 29 | 20.9 | 25.7 | 0.00 | 0.69 | 0.69 | 68 | 1017.3 |
| 20260904213321 | 26 | 29 | 20.9 | 25.7 | 0.00 | 0.69 | 0.69 | 65 | 1017.4 |
| 20260904212817 | 27 | 29 | 20.9 | 25.7 | 0.00 | 0.69 | 0.69 | 61 | 1017.3 |
| 20260904212317 | 28 | 29 | 20.9 | 25.7 | 0.00 | 0.69 | 0.69 | 59 | 1017.2 |
| 20260904211813 | 28 | 29 | 20.9 | 25.7 | 0.00 | 0.69 | 0.69 | 62 | 1017.4 |
| 20260904211307 | 28 | 29 | 20.9 | 25.7 | 0.00 | 0.69 | 0.69 | 58 | 1017.4 |
| 20260904210802 | 28 | 29 | 20.9 | 25.7 | 0.00 | 0.69 | 0.69 | 59 | 1017.3 |
| 20260904210256 | 27 | 29 | 20.9 | 25.7 | 0.00 | 0.69 | 0.69 | 59 | 1017.3 |
| 20260904205752 | 27 | 29 | 20.9 | 25.7 | 0.00 | 0.69 | 0.69 | 58 | 1017.4 |
| 20260904205248 | 26 | 29 | 20.9 | 25.7 | 0.00 | 0.69 | 0.69 | 57 | 1017.6 |
| 20260904204745 | 28 | 29 | 20.9 | 25.7 | 0.00 | 0.69 | 0.69 | 57 | 1017.5 |
| 20260904204240 | 28 | 29 | 20.9 | 25.7 | 0.00 | 0.69 | 0.69 | 57 | 1017.5 |
| 20260904203736 | 28 | 29 | 20.9 | 25.7 | 0.00 | 0.69 | 0.69 | 57 | 1017.5 |
| 20260904203232 | 28 | 29 | 20.9 | 25.7 | 0.00 | 0.69 | 0.69 | 57 | 1017.6 |